QPF
0.02 0.04 0.06 0.07 0.04 0.02 0.01 0.01 0.01 0.01 0.02 0.01 0.01 0.01 0.01 0.01 0.01 0.02 0.02 0.01 0.02 0.03 0.04 0.05 0.05 0.07 0.07 0.07 0.07 0.07 0.05 0.06 0.05 0.03 0.01 0.01 0.02 0.02 0.02 0.02 0.02 0.02 0.01
0.02 0.03 0.05 0.08 0.08 0.05 0.03 0.02 0.02 0.02 0.02 0.02 0.01 0.01 0.01 0.01 0.01 0.01 0.01 0.01 0.01 0.02 0.03 0.03 0.03 0.08 0.08 0.06 0.06 0.06 0.06 0.05 0.05 0.04 0.03 0.02 0.02 0.03 0.02 0.02 0.01 0.01 0.01
0.02 0.04 0.05 0.07 0.08 0.08 0.07 0.06 0.03 0.02 0.02 0.02 0.01 0.01 0.01 0.01 0.01 0.01 0.01 0.01 0.01 0.01 0.02 0.02 0.03 0.05 0.06 0.06 0.05 0.05 0.06 0.05 0.04 0.04 0.04 0.03 0.03 0.03 0.03 0.02 0.02 0.01 0.01
0.03 0.05 0.06 0.07 0.08 0.09 0.08 0.07 0.04 0.03 0.03 0.02 0.02 0.02 0.01 0.01 0.01 0.01 0.01 0.01 0.00 0.00 0.01 0.01 0.02 0.04 0.05 0.05 0.04 0.04 0.03 0.03 0.03 0.03 0.04 0.04 0.04 0.03 0.03 0.03 0.02 0.02 0.02
0.02 0.03 0.04 0.07 0.10 0.10 0.09 0.08 0.08 0.06 0.05 0.02 0.02 0.02 0.01 0.00 0.01 0.02 0.02 0.01 0.01 0.01 0.00 0.01 0.01 0.02 0.03 0.04 0.04 0.04 0.03 0.03 0.03 0.02 0.02 0.03 0.04 0.06 0.05 0.04 0.03 0.02 0.02
0.02 0.02 0.03 0.05 0.08 0.10 0.12 0.12 0.10 0.07 0.05 0.03 0.02 0.01 0.01 0.01 0.01 0.01 0.02 0.01 0.01 0.01 0.01 0.01 0.01 0.01 0.01 0.02 0.03 0.04 0.04 0.03 0.03 0.03 0.02 0.02 0.02 0.04 0.04 0.04 0.04 0.03 0.03
0.03 0.02 0.03 0.04 0.05 0.08 0.10 0.10 0.10 0.08 0.05 0.03 0.02 0.01 0.01 0.01 0.01 0.01 0.01 0.01 0.01 0.00 0.00 0.00 0.00 0.00 0.00 0.01 0.02 0.03 0.04 0.03 0.03 0.02 0.02 0.02 0.02 0.02 0.03 0.04 0.05 0.04 0.03
0.02 0.03 0.03 0.03 0.04 0.04 0.06 0.06 0.07 0.07 0.06 0.03 0.02 0.01 0.01 0.01 0.01 0.01 0.01 0.01 0.01 0.01 0.00 0.00 0.00 0.00 0.00 0.01 0.02 0.02 0.03 0.03 0.04 0.03 0.03 0.02 0.02 0.02 0.02 0.03 0.04 0.04 0.03
0.02 0.03 0.03 0.03 0.03 0.03 0.03 0.03 0.04 0.05 0.05 0.04 0.03 0.02 0.02 0.01 0.01 0.01 0.01 0.01 0.01 0.01 0.00 0.00 0.00 0.00 0.00 0.00 0.00 0.01 0.02 0.02 0.03 0.04 0.04 0.04 0.03 0.02 0.02 0.03 0.04 0.04 0.03
0.02 0.02 0.02 0.03 0.04 0.03 0.02 0.02 0.02 0.02 0.04 0.04 0.03 0.03 0.03 0.03 0.03 0.02 0.02 0.02 0.02 0.01 0.01 0.01 0.01 0.01 0.01 0.01 0.01 0.01 0.01 0.01 0.02 0.02 0.03 0.03 0.03 0.03 0.03 0.03 0.04 0.04 0.04
0.03 0.03 0.02 0.02 0.02 0.02 0.02 0.01 0.01 0.02 0.03 0.03 0.03 0.02 0.03 0.04 0.04 0.03 0.02 0.02 0.03 0.02 0.02 0.02 0.02 0.02 0.01 0.01 0.01 0.01 0.01 0.01 0.01 0.01 0.02 0.03 0.03 0.04 0.05 0.05 0.06 0.05 0.04
0.02 0.03 0.04 0.03 0.02 0.02 0.01 0.01 0.01 0.01 0.02 0.03 0.03 0.02 0.01 0.02 0.03 0.04 0.03 0.02 0.02 0.02 0.02 0.02 0.02 0.02 0.01 0.01 0.01 0.01 0.01 0.01 0.01 0.01 0.01 0.03 0.04 0.04 0.05 0.06 0.06 0.06 0.05
0.02 0.02 0.03 0.04 0.03 0.02 0.01 0.01 0.01 0.01 0.01 0.02 0.02 0.02 0.02 0.01 0.02 0.03 0.04 0.04 0.03 0.03 0.02 0.02 0.02 0.02 0.02 0.01 0.01 0.01 0.01 0.01 0.01 0.01 0.02 0.04 0.03 0.03 0.03 0.04 0.04 0.04 0.04
0.02 0.02 0.02 0.02 0.02 0.02 0.02 0.02 0.02 0.02 0.02 0.02 0.02 0.01 0.01 0.01 0.01 0.01 0.01 0.02 0.02 0.02 0.01 0.01 0.01 0.01 0.01 0.01 0.01 0.01 0.01 0.01 0.01 0.01 0.02 0.02 0.02 0.02 0.03 0.03 0.03 0.02 0.03
0.01 0.02 0.03 0.03 0.02 0.03 0.03 0.03 0.02 0.02 0.03 0.03 0.02 0.02 0.02 0.01 0.01 0.01 0.01 0.01 0.02 0.02 0.01 0.01 0.00 0.01 0.01 0.01 0.01 0.01 0.00 0.01 0.00 0.01 0.01 0.01 0.01 0.02 0.02 0.03 0.02 0.02 0.02
0.00 0.00 0.01 0.03 0.03 0.03 0.02 0.03 0.03 0.03 0.03 0.03 0.03 0.02 0.02 0.02 0.02 0.01 0.01 0.01 0.01 0.02 0.02 0.01 0.01 0.01 0.01 0.01 0.01 0.00 0.00 0.00 0.00 0.00 0.00 0.01 0.01 0.01 0.01 0.02 0.02 0.01 0.01
0.00 0.00 0.01 0.01 0.02 0.03 0.02 0.03 0.03 0.03 0.03 0.03 0.03 0.02 0.01 0.01 0.02 0.02 0.01 0.01 0.01 0.01 0.01 0.01 0.01 0.01 0.01 0.01 0.01 0.01 0.00 0.00 0.00 0.00 0.00 0.01 0.01 0.01 0.01 0.01 0.02 0.01 0.01
0.01 0.01 0.01 0.01 0.01 0.02 0.02 0.03 0.03 0.03 0.03 0.03 0.03 0.02 0.02 0.02 0.01 0.01 0.01 0.01 0.01 0.01 0.01 0.01 0.01 0.01 0.01 0.01 0.01 0.01 0.01 0.00 0.00 0.00 0.00 0.00 0.01 0.01 0.01 0.01 0.02 0.01 0.01
0.01 0.01 0.01 0.01 0.01 0.02 0.02 0.03 0.03 0.03 0.03 0.03 0.03 0.03 0.03 0.02 0.02 0.02 0.01 0.01 0.01 0.01 0.01 0.01 0.01 0.02 0.02 0.02 0.02 0.01 0.01 0.01 0.01 0.01 0.01 0.01 0.01 0.01 0.01 0.02 0.03 0.02 0.01
0.01 0.01 0.01 0.02 0.02 0.01 0.02 0.02 0.03 0.04 0.04 0.04 0.03 0.03 0.03 0.03 0.03 0.03 0.03 0.03 0.02 0.02 0.02 0.02 0.02 0.02 0.02 0.02 0.02 0.02 0.01 0.01 0.01 0.01 0.01 0.01 0.01 0.01 0.01 0.02 0.03 0.03 0.01
0.01 0.01 0.01 0.01 0.02 0.02 0.02 0.02 0.02 0.03 0.04 0.04 0.04 0.04 0.04 0.04 0.04 0.04 0.04 0.04 0.04 0.04 0.04 0.03 0.03 0.02 0.02 0.02 0.02 0.02 0.02 0.02 0.02 0.01 0.01 0.01 0.01 0.01 0.01 0.02 0.03 0.03 0.03
0.01 0.01 0.01 0.02 0.02 0.02 0.02 0.02 0.02 0.03 0.03 0.03 0.03 0.03 0.04 0.04 0.04 0.04 0.04 0.05 0.05 0.05 0.04 0.04 0.04 0.03 0.02 0.02 0.02 0.02 0.02 0.03 0.03 0.02 0.02 0.01 0.01 0.01 0.01 0.01 0.02 0.03 0.03
0.01 0.01 0.01 0.02 0.02 0.02 0.02 0.02 0.02 0.02 0.02 0.03 0.03 0.03 0.03 0.03 0.03 0.03 0.04 0.04 0.04 0.04 0.04 0.04 0.04 0.03 0.02 0.02 0.02 0.02 0.02 0.03 0.02 0.03 0.03 0.03 0.02 0.01 0.01 0.01 0.02 0.03 0.03
0.01 0.01 0.01 0.02 0.02 0.02 0.03 0.02 0.03 0.02 0.02 0.02 0.02 0.02 0.02 0.02 0.02 0.03 0.03 0.03 0.03 0.02 0.02 0.02 0.02 0.02 0.02 0.03 0.03 0.03 0.03 0.03 0.03 0.03 0.03 0.03 0.03 0.02 0.02 0.01 0.02 0.02 0.03
0.01 0.01 0.01 0.02 0.02 0.02 0.03 0.03 0.03 0.02 0.02 0.02 0.02 0.02 0.02 0.02 0.02 0.02 0.03 0.02 0.02 0.02 0.02 0.02 0.02 0.03 0.03 0.03 0.03 0.03 0.04 0.04 0.03 0.03 0.03 0.03 0.03 0.03 0.02 0.02 0.01 0.02 0.02
0.01 0.01 0.01 0.01 0.02 0.03 0.03 0.03 0.03 0.02 0.02 0.02 0.02 0.02 0.02 0.02 0.02 0.02 0.02 0.02 0.02 0.02 0.02 0.02 0.02 0.02 0.02 0.03 0.03 0.03 0.03 0.04 0.04 0.03 0.02 0.03 0.03 0.03 0.03 0.02 0.01 0.02 0.02
MSLP
1012.08 1012.61 1013.16 1013.68 1014.18 1014.65 1015.09 1015.52 1015.92 1016.32 1016.70 1017.05 1017.38 1017.68 1017.95 1018.20 1018.44 1018.66 1018.88 1019.11 1019.34 1019.57 1019.80 1020.04 1020.26 1020.49 1020.70 1020.91 1021.10 1021.28 1021.45 1021.59 1021.71 1021.79 1021.85 1021.87 1021.85 1021.81 1021.73 1021.64 1021.52 1021.40 1021.28
1011.93 1012.47 1013.02 1013.56 1014.07 1014.57 1015.06 1015.53 1015.99 1016.42 1016.84 1017.22 1017.57 1017.88 1018.16 1018.42 1018.65 1018.86 1019.08 1019.29 1019.50 1019.72 1019.94 1020.16 1020.38 1020.60 1020.81 1021.02 1021.23 1021.42 1021.59 1021.75 1021.87 1021.97 1022.02 1022.04 1022.02 1021.97 1021.88 1021.78 1021.66 1021.53 1021.41
1011.79 1012.34 1012.89 1013.44 1013.98 1014.52 1015.05 1015.58 1016.09 1016.58 1017.03 1017.45 1017.82 1018.15 1018.43 1018.68 1018.91 1019.12 1019.31 1019.51 1019.70 1019.89 1020.08 1020.28 1020.48 1020.68 1020.89 1021.09 1021.29 1021.49 1021.67 1021.83 1021.96 1022.06 1022.12 1022.13 1022.11 1022.05 1021.97 1021.86 1021.75 1021.63 1021.52
1011.71 1012.25 1012.80 1013.36 1013.92 1014.49 1015.07 1015.65 1016.22 1016.75 1017.25 1017.70 1018.09 1018.43 1018.73 1018.98 1019.20 1019.39 1019.58 1019.75 1019.91 1020.07 1020.23 1020.40 1020.57 1020.74 1020.93 1021.12 1021.31 1021.50 1021.68 1021.83 1021.96 1022.05 1022.11 1022.12 1022.10 1022.05 1021.97 1021.87 1021.77 1021.67 1021.58
1011.73 1012.24 1012.77 1013.32 1013.89 1014.49 1015.10 1015.72 1016.33 1016.90 1017.44 1017.91 1018.33 1018.69 1019.00 1019.25 1019.47 1019.66 1019.83 1019.98 1020.11 1020.24 1020.37 1020.49 1020.63 1020.77 1020.93 1021.09 1021.27 1021.44 1021.60 1021.75 1021.87 1021.95 1022.00 1022.01 1021.99 1021.94 1021.88 1021.80 1021.72 1021.65 1021.58
1011.87 1012.34 1012.82 1013.34 1013.90 1014.50 1015.12 1015.76 1016.39 1016.99 1017.55 1018.05 1018.49 1018.87 1019.19 1019.46 1019.68 1019.87 1020.03 1020.16 1020.27 1020.37 1020.46 1020.55 1020.65 1020.76 1020.88 1021.02 1021.17 1021.32 1021.47 1021.59 1021.70 1021.77 1021.81 1021.81 1021.79 1021.75 1021.70 1021.65 1021.59 1021.55 1021.51
1012.15 1012.54 1012.95 1013.42 1013.93 1014.50 1015.11 1015.75 1016.38 1016.99 1017.56 1018.08 1018.54 1018.94 1019.28 1019.56 1019.80 1019.99 1020.14 1020.26 1020.36 1020.43 1020.49 1020.55 1020.61 1020.69 1020.78 1020.89 1021.02 1021.15 1021.27 1021.38 1021.46 1021.52 1021.54 1021.55 1021.53 1021.50 1021.46 1021.43 1021.41 1021.39 1021.38
1012.53 1012.82 1013.15 1013.54 1013.99 1014.51 1015.08 1015.68 1016.30 1016.90 1017.47 1018.00 1018.47 1018.89 1019.25 1019.55 1019.80 1020.00 1020.16 1020.27 1020.34 1020.40 1020.43 1020.46 1020.50 1020.55 1020.62 1020.71 1020.81 1020.92 1021.02 1021.11 1021.18 1021.22 1021.24 1021.24 1021.23 1021.21 1021.19 1021.18 1021.17 1021.18 1021.20
1012.98 1013.17 1013.40 1013.70 1014.08 1014.52 1015.04 1015.59 1016.17 1016.74 1017.30 1017.82 1018.30 1018.73 1019.11 1019.43 1019.69 1019.90 1020.06 1020.16 1020.23 1020.26 1020.28 1020.29 1020.31 1020.34 1020.39 1020.46 1020.55 1020.64 1020.73 1020.81 1020.87 1020.90 1020.92 1020.93 1020.92 1020.91 1020.90 1020.91 1020.92 1020.95 1020.98
1013.43 1013.53 1013.68 1013.90 1014.19 1014.57 1015.01 1015.50 1016.03 1016.56 1017.09 1017.60 1018.07 1018.51 1018.89 1019.22 1019.50 1019.71 1019.86 1019.96 1020.02 1020.04 1020.04 1020.03 1020.04 1020.06 1020.10 1020.16 1020.24 1020.32 1020.40 1020.48 1020.53 1020.58 1020.60 1020.61 1020.62 1020.62 1020.63 1020.65 1020.67 1020.71 1020.75
1013.83 1013.87 1013.96 1014.11 1014.34 1014.64 1015.02 1015.45 1015.92 1016.40 1016.89 1017.37 1017.83 1018.26 1018.65 1018.98 1019.25 1019.46 1019.61 1019.70 1019.75 1019.75 1019.74 1019.73 1019.73 1019.74 1019.77 1019.83 1019.90 1019.97 1020.05 1020.13 1020.19 1020.24 1020.28 1020.31 1020.34 1020.36 1020.38 1020.41 1020.45 1020.48 1020.52
1014.13 1014.15 1014.21 1014.32 1014.51 1014.76 1015.08 1015.45 1015.86 1016.29 1016.74 1017.19 1017.62 1018.03 1018.41 1018.73 1019.00 1019.20 1019.34 1019.42 1019.45 1019.45 1019.43 1019.41 1019.40 1019.41 1019.43 1019.48 1019.54 1019.61 1019.69 1019.77 1019.84 1019.91 1019.97 1020.03 1020.08 1020.12 1020.17 1020.20 1020.24 1020.27 1020.29
1014.31 1014.34 1014.41 1014.52 1014.69 1014.92 1015.20 1015.52 1015.87 1016.25 1016.65 1017.06 1017.47 1017.85 1018.20 1018.51 1018.77 1018.96 1019.09 1019.16 1019.19 1019.18 1019.16 1019.13 1019.12 1019.11 1019.13 1019.16 1019.21 1019.27 1019.33 1019.41 1019.49 1019.57 1019.66 1019.74 1019.83 1019.90 1019.96 1020.01 1020.04 1020.06 1020.07
1014.38 1014.45 1014.56 1014.69 1014.88 1015.09 1015.35 1015.63 1015.94 1016.28 1016.63 1017.00 1017.37 1017.72 1018.05 1018.34 1018.58 1018.77 1018.89 1018.96 1018.99 1018.99 1018.97 1018.94 1018.92 1018.90 1018.90 1018.90 1018.92 1018.96 1019.01 1019.07 1019.14 1019.24 1019.35 1019.46 1019.57 1019.67 1019.75 1019.81 1019.84 1019.84 1019.83
1014.38 1014.51 1014.66 1014.84 1015.05 1015.28 1015.53 1015.79 1016.07 1016.36 1016.68 1017.00 1017.33 1017.66 1017.97 1018.24 1018.48 1018.66 1018.79 1018.87 1018.91 1018.91 1018.90 1018.87 1018.84 1018.81 1018.77 1018.74 1018.72 1018.72 1018.72 1018.76 1018.82 1018.91 1019.02 1019.15 1019.29 1019.41 1019.50 1019.57 1019.59 1019.59 1019.55
1014.35 1014.54 1014.76 1014.99 1015.23 1015.48 1015.73 1015.98 1016.23 1016.50 1016.78 1017.07 1017.37 1017.67 1017.96 1018.23 1018.46 1018.65 1018.79 1018.89 1018.95 1018.97 1018.97 1018.95 1018.90 1018.84 1018.77 1018.70 1018.62 1018.55 1018.51 1018.49 1018.52 1018.59 1018.69 1018.82 1018.96 1019.09 1019.20 1019.26 1019.28 1019.26 1019.20
1014.37 1014.62 1014.89 1015.17 1015.45 1015.72 1015.97 1016.22 1016.45 1016.69 1016.94 1017.21 1017.48 1017.77 1018.05 1018.31 1018.55 1018.75 1018.91 1019.03 1019.12 1019.16 1019.17 1019.15 1019.09 1019.01 1018.89 1018.76 1018.62 1018.48 1018.36 1018.29 1018.26 1018.28 1018.35 1018.45 1018.58 1018.70 1018.80 1018.85 1018.86 1018.83 1018.75
1014.52 1014.80 1015.10 1015.42 1015.73 1016.01 1016.28 1016.51 1016.74 1016.96 1017.20 1017.44 1017.70 1017.97 1018.24 1018.50 1018.74 1018.96 1019.14 1019.29 1019.39 1019.46 1019.48 1019.45 1019.38 1019.26 1019.10 1018.90 1018.69 1018.48 1018.28 1018.12 1018.02 1017.98 1017.99 1018.05 1018.14 1018.23 1018.30 1018.34 1018.33 1018.28 1018.19
1014.80 1015.10 1015.43 1015.77 1016.09 1016.39 1016.65 1016.89 1017.11 1017.33 1017.55 1017.77 1018.02 1018.27 1018.54 1018.80 1019.04 1019.26 1019.46 1019.61 1019.73 1019.80 1019.82 1019.79 1019.70 1019.55 1019.34 1019.09 1018.81 1018.52 1018.24 1018.00 1017.82 1017.70 1017.64 1017.63 1017.65 1017.69 1017.71 1017.71 1017.67 1017.60 1017.51
1015.23 1015.53 1015.87 1016.21 1016.54 1016.85 1017.12 1017.36 1017.58 1017.79 1018.00 1018.22 1018.45 1018.69 1018.94 1019.19 1019.42 1019.63 1019.82 1019.97 1020.08 1020.14 1020.16 1020.11 1020.00 1019.81 1019.57 1019.27 1018.93 1018.58 1018.23 1017.91 1017.64 1017.44 1017.29 1017.19 1017.14 1017.10 1017.06 1017.00 1016.93 1016.83 1016.72
1015.75 1016.05 1016.39 1016.73 1017.06 1017.37 1017.64 1017.89 1018.11 1018.32 1018.53 1018.75 1018.97 1019.20 1019.42 1019.64 1019.85 1020.03 1020.19 1020.31 1020.40 1020.44 1020.42 1020.35 1020.22 1020.01 1019.74 1019.41 1019.03 1018.63 1018.22 1017.83 1017.49 1017.19 1016.95 1016.76 1016.61 1016.49 1016.37 1016.25 1016.13 1016.00 1015.88
1016.28 1016.60 1016.93 1017.27 1017.60 1017.91 1018.19 1018.45 1018.68 1018.90 1019.12 1019.33 1019.54 1019.74 1019.94 1020.12 1020.28 1020.42 1020.53 1020.60 1020.64 1020.64 1020.59 1020.50 1020.34 1020.12 1019.83 1019.48 1019.08 1018.65 1018.20 1017.76 1017.35 1016.97 1016.64 1016.36 1016.11 1015.89 1015.69 1015.50 1015.33 1015.16 1015.03
1016.75 1017.08 1017.42 1017.76 1018.10 1018.42 1018.71 1018.98 1019.23 1019.47 1019.69 1019.90 1020.10 1020.28 1020.45 1020.58 1020.69 1020.76 1020.81 1020.82 1020.80 1020.75 1020.66 1020.53 1020.36 1020.12 1019.83 1019.48 1019.08 1018.63 1018.16 1017.68 1017.21 1016.77 1016.36 1015.98 1015.64 1015.33 1015.04 1014.79 1014.56 1014.37 1014.22
1017.08 1017.43 1017.79 1018.15 1018.50 1018.83 1019.14 1019.43 1019.71 1019.96 1020.19 1020.41 1020.60 1020.76 1020.89 1020.98 1021.03 1021.04 1021.01 1020.95 1020.87 1020.77 1020.64 1020.49 1020.30 1020.06 1019.77 1019.43 1019.03 1018.59 1018.10 1017.59 1017.08 1016.57 1016.08 1015.62 1015.19 1014.81 1014.45 1014.14 1013.87 1013.66 1013.50
1017.24 1017.63 1018.01 1018.39 1018.76 1019.12 1019.45 1019.76 1020.06 1020.33 1020.58 1020.80 1020.99 1021.14 1021.24 1021.29 1021.28 1021.23 1021.15 1021.03 1020.90 1020.75 1020.59 1020.41 1020.21 1019.97 1019.69 1019.36 1018.96 1018.51 1018.02 1017.48 1016.92 1016.35 1015.80 1015.27 1014.77 1014.31 1013.91 1013.55 1013.26 1013.04 1012.88
1017.25 1017.69 1018.11 1018.51 1018.90 1019.28 1019.63 1019.97 1020.28 1020.58 1020.84 1021.08 1021.27 1021.40 1021.48 1021.50 1021.46 1021.37 1021.24 1021.08 1020.90 1020.72 1020.54 1020.34 1020.13 1019.90 1019.62 1019.29 1018.89 1018.43 1017.91 1017.33 1016.73 1016.10 1015.48 1014.89 1014.33 1013.83 1013.38 1013.01 1012.71 1012.49 1012.34
Thickness
5661 5661 5661 5661 5661 5661 5661 5661 5661 5662 5662 5662 5662 5662 5662 5661 5661 5662 5662 5662 5662 5662 5662 5661 5660 5660 5659 5659 5658 5658 5658 5657 5656 5656 5655 5653 5652 5651 5650 5650 5649 5648 5647
5656 5656 5655 5655 5655 5656 5655 5655 5655 5655 5655 5655 5655 5655 5655 5655 5655 5655 5655 5655 5655 5655 5655 5654 5654 5654 5654 5653 5652 5652 5651 5651 5650 5649 5648 5647 5646 5645 5644 5644 5642 5642 5641
5651 5651 5650 5650 5650 5650 5650 5649 5649 5648 5648 5647 5647 5647 5647 5647 5647 5647 5647 5647 5647 5647 5647 5647 5647 5647 5647 5646 5646 5645 5644 5644 5643 5643 5642 5641 5640 5639 5638 5637 5636 5635 5634
5645 5645 5644 5644 5644 5644 5643 5643 5642 5641 5640 5639 5639 5639 5639 5639 5639 5639 5639 5639 5639 5639 5639 5639 5639 5639 5639 5639 5639 5638 5637 5636 5636 5635 5635 5634 5633 5632 5631 5630 5629 5628 5628
5639 5639 5638 5638 5638 5637 5637 5637 5635 5635 5632 5631 5631 5631 5631 5631 5631 5631 5631 5630 5630 5631 5631 5631 5631 5630 5630 5630 5631 5630 5629 5629 5628 5628 5627 5627 5626 5625 5624 5623 5622 5622 5621
5632 5632 5631 5631 5631 5630 5629 5629 5627 5627 5626 5624 5623 5621 5621 5622 5622 5622 5622 5622 5622 5622 5622 5622 5622 5621 5621 5621 5622 5622 5621 5621 5620 5620 5619 5619 5618 5617 5617 5616 5615 5614 5614
5625 5625 5625 5624 5624 5623 5622 5622 5620 5618 5617 5616 5614 5611 5610 5611 5612 5613 5613 5613 5613 5613 5613 5612 5612 5612 5612 5612 5612 5612 5612 5612 5612 5611 5611 5611 5610 5610 5609 5608 5607 5607 5606
5618 5618 5618 5617 5617 5616 5614 5614 5614 5610 5608 5609 5607 5603 5600 5600 5602 5604 5603 5604 5603 5603 5603 5603 5602 5602 5602 5602 5602 5603 5602 5603 5602 5603 5603 5603 5602 5601 5601 5600 5600 5599 5598
5611 5611 5611 5610 5609 5609 5608 5607 5607 5605 5601 5600 5601 5599 5594 5592 5591 5593 5593 5594 5594 5594 5594 5593 5593 5592 5592 5592 5592 5592 5592 5593 5593 5593 5594 5593 5593 5593 5592 5592 5591 5591 5590
5603 5603 5603 5602 5602 5602 5601 5600 5599 5599 5596 5593 5591 5591 5591 5590 5585 5582 5582 5583 5584 5584 5584 5584 5584 5583 5583 5582 5582 5582 5583 5582 5583 5584 5584 5584 5584 5583 5583 5583 5582 5582 5581
5594 5595 5595 5595 5594 5594 5593 5593 5592 5591 5590 5588 5585 5583 5581 5579 5579 5576 5574 5573 5574 5575 5575 5575 5574 5574 5573 5573 5573 5573 5573 5573 5573 5573 5574 5574 5574 5573 5573 5573 5572 5572 5571
5586 5587 5587 5587 5587 5586 5586 5585 5584 5584 5583 5581 5580 5578 5576 5574 5571 5569 5566 5564 5564 5566 5566 5566 5565 5564 5564 5563 5563 5563 5563 5562 5562 5563 5563 5563 5563 5563 5562 5562 5562 5561 5561
5578 5579 5579 5579 5579 5579 5579 5578 5577 5576 5575 5574 5573 5571 5570 5569 5567 5564 5561 5557 5555 5556 5556 5557 5557 5556 5555 5554 5554 5553 5553 5552 5552 5552 5552 5552 5552 5551 5551 5551 5551 5551 5550
5571 5572 5572 5572 5572 5571 5571 5570 5569 5568 5567 5566 5565 5563 5562 5561 5559 5558 5555 5550 5547 5546 5546 5548 5548 5547 5547 5546 5545 5544 5544 5543 5542 5542 5542 5541 5540 5540 5540 5539 5539 5539 5539
5563 5564 5564 5563 5563 5563 5563 5562 5561 5560 5559 5558 5557 5555 5554 5553 5551 5550 5549 5547 5543 5539 5539 5539 5538 5539 5538 5538 5537 5535 5535 5534 5533 5532 5531 5531 5530 5529 5529 5528 5528 5527 5527
5554 5555 5555 5555 5554 5554 5554 5553 5553 5552 5551 5550 5549 5547 5546 5544 5543 5541 5540 5539 5537 5535 5533 5532 5531 5530 5529 5528 5528 5527 5525 5524 5523 5522 5522 5521 5521 5520 5519 5518 5517 5516 5516
5545 5545 5546 5545 5545 5545 5545 5544 5544 5543 5542 5541 5540 5539 5538 5537 5534 5532 5531 5529 5527 5526 5524 5523 5521 5520 5519 5518 5518 5517 5515 5514 5513 5512 5512 5512 5511 5510 5508 5507 5506 5505 5505
5536 5536 5536 5536 5536 5536 5535 5535 5535 5534 5534 5533 5531 5530 5529 5528 5526 5524 5522 5520 5518 5517 5515 5513 5511 5510 5509 5508 5507 5506 5505 5504 5503 5503 5502 5502 5501 5499 5498 5497 5496 5495 5494
5526 5526 5527 5527 5527 5527 5526 5526 5526 5526 5525 5525 5523 5522 5521 5519 5517 5515 5514 5511 5510 5508 5506 5503 5502 5499 5498 5496 5495 5494 5494 5493 5493 5493 5492 5492 5491 5489 5488 5486 5485 5484 5484
5516 5517 5517 5518 5518 5517 5517 5517 5516 5516 5516 5516 5515 5514 5513 5511 5510 5507 5505 5503 5501 5498 5496 5493 5491 5488 5486 5485 5483 5482 5482 5482 5482 5482 5482 5481 5479 5478 5477 5476 5475 5475 5474
5507 5507 5507 5507 5507 5507 5508 5508 5507 5507 5507 5506 5506 5505 5504 5503 5502 5500 5498 5495 5492 5489 5486 5483 5481 5478 5476 5473 5473 5472 5470 5470 5470 5470 5470 5470 5469 5468 5467 5465 5465 5464 5463
5495 5496 5497 5497 5497 5498 5499 5499 5498 5497 5497 5496 5496 5495 5495 5494 5493 5491 5490 5488 5485 5482 5479 5475 5473 5470 5469 5466 5463 5461 5458 5456 5458 5459 5457 5458 5458 5457 5456 5455 5455 5454 5453
5484 5485 5486 5487 5488 5488 5489 5489 5489 5488 5487 5487 5487 5486 5485 5484 5483 5482 5480 5478 5476 5474 5472 5470 5466 5464 5461 5459 5455 5451 5448 5447 5447 5448 5445 5447 5447 5447 5446 5445 5444 5443 5441
5472 5473 5474 5475 5476 5478 5479 5479 5479 5478 5477 5477 5477 5476 5475 5475 5474 5473 5471 5468 5466 5464 5463 5461 5459 5457 5453 5450 5447 5444 5441 5438 5436 5435 5433 5433 5435 5435 5436 5434 5433 5432 5430
5460 5461 5463 5464 5465 5467 5468 5469 5468 5467 5467 5467 5467 5466 5466 5465 5465 5463 5461 5459 5457 5455 5453 5451 5449 5446 5443 5440 5437 5433 5429 5426 5425 5424 5421 5420 5422 5421 5422 5423 5422 5421 5419
5449 5450 5451 5452 5454 5456 5457 5458 5458 5457 5457 5456 5456 5456 5455 5455 5454 5453 5451 5449 5447 5446 5443 5441 5438 5436 5433 5429 5426 5424 5421 5416 5413 5412 5411 5408 5407 5405 5408 5412 5411 5409 5408